Wind_Speed
9 10 12 13 13 15 16 17 18 19 19 19 19 20 20 21 22 22 22 22 23 23 23 23 23 23 22 20 18 17 16 15 14 13 12 11 9 7 4 2 4 5 7 7
8 10 11 12 13 14 15 17 17 18 18 19 19 20 20 21 22 23 23 23 23 24 24 24 24 23 23 22 21 19 18 17 15 14 13 12 10 8 7 4 1 2 3 5
8 9 10 11 13 14 14 16 17 17 18 18 18 19 20 21 22 22 23 24 24 24 24 24 24 24 23 22 22 21 20 18 17 16 15 13 11 10 9 7 5 3 1 1
7 8 10 11 12 13 13 14 15 16 17 17 18 19 19 20 21 22 22 23 23 24 24 24 24 24 24 23 22 22 21 20 19 18 17 15 13 11 10 8 7 5 3 2
6 7 9 10 11 12 12 13 14 15 15 16 17 18 19 19 20 21 21 22 23 23 24 24 24 24 24 24 23 23 22 21 20 19 18 17 16 13 11 9 7 6 5 3
4 6 7 9 10 11 11 12 12 13 14 15 16 17 17 18 19 20 20 21 22 22 23 24 24 24 24 24 24 24 23 22 21 20 20 19 17 15 13 11 9 7 6 4
3 4 6 7 8 9 10 11 11 12 13 14 15 16 16 17 18 19 19 20 20 21 22 22 23 23 23 23 23 23 23 23 22 22 21 20 19 17 16 14 12 10 8 6
3 4 5 6 7 8 9 9 10 10 11 12 13 14 16 16 17 18 18 19 20 20 21 21 22 22 23 23 23 23 22 22 22 22 21 20 19 19 17 16 14 12 10 8
4 4 4 5 6 7 7 8 9 9 10 11 12 13 14 15 16 17 17 18 19 19 20 20 21 21 22 22 22 22 22 22 22 22 21 21 20 19 18 17 15 14 12 10
6 5 5 5 6 6 7 7 8 8 9 10 10 11 12 14 15 15 16 17 18 18 19 19 20 20 21 21 22 22 22 22 22 21 21 21 20 20 19 18 17 15 14 12
8 8 7 7 6 7 7 7 8 8 9 9 10 10 11 12 13 14 14 15 16 17 18 18 19 19 20 20 21 21 22 22 22 21 21 20 20 20 19 19 18 17 15 13
11 10 9 8 8 8 8 8 8 8 8 9 9 9 10 10 11 12 13 14 14 15 16 17 17 18 19 19 20 20 21 21 21 21 20 19 19 19 19 19 18 17 16 14
14 13 12 11 10 10 9 9 9 9 9 9 9 9 10 10 10 11 11 12 13 14 15 15 16 16 17 18 18 19 19 20 20 20 20 19 19 18 18 18 18 17 16 15
17 16 15 14 13 12 12 11 10 10 10 10 9 10 10 10 10 10 10 11 11 12 13 14 14 15 16 16 17 17 18 18 19 19 19 18 18 18 17 17 17 17 16 15
21 19 18 17 16 15 14 14 13 12 12 11 11 10 10 10 10 10 10 10 11 11 11 12 13 13 14 15 15 16 16 17 17 17 17 17 17 17 16 16 16 16 16 15
24 22 21 20 19 18 17 16 16 15 14 13 12 12 11 11 11 11 11 11 11 11 11 11 11 12 13 13 14 14 14 15 15 16 16 16 16 16 15 15 15 15 15 14
27 26 25 24 22 21 20 20 19 18 16 15 15 14 13 13 13 12 12 12 11 11 11 11 11 11 12 12 13 13 13 13 14 14 14 15 14 14 14 13 13 13 13 13
31 30 29 27 26 24 24 23 22 21 19 18 17 16 16 15 14 14 13 13 12 12 12 12 12 12 12 12 12 12 12 12 12 13 13 12 13 12 12 12 12 11 11 11
35 34 33 31 29 28 27 26 25 24 22 21 20 19 19 18 17 16 15 14 14 13 13 13 12 12 12 12 12 12 12 12 12 12 11 11 10 10 10 10 10 10 10 9
39 38 36 35 33 31 30 29 28 27 26 25 24 23 22 21 20 18 18 17 16 15 15 14 14 13 13 13 12 12 12 12 12 11 11 10 9 9 9 8 8 8 8 8
43 42 40 39 37 36 35 33 32 31 30 28 27 26 25 24 23 22 21 20 19 18 17 16 16 15 14 14 13 13 13 13 12 12 11 10 10 9 9 8 8 7 7 7
47 46 45 43 42 40 39 38 36 35 34 32 31 30 29 28 27 25 24 23 22 21 20 19 18 17 16 16 15 15 15 14 14 13 12 12 11 11 10 9 9 8 8 7
51 50 49 48 46 45 44 42 41 40 38 37 36 35 34 32 31 30 29 27 26 25 24 23 22 21 20 19 18 18 17 17 16 15 15 14 13 13 12 12 11 11 10 9
55 54 53 52 51 50 48 47 46 44 43 42 40 39 38 37 35 34 33 32 30 29 28 27 26 24 23 23 22 21 21 20 19 18 18 17 16 16 15 15 14 14 13 13
60 59 58 57 55 54 53 52 50 49 48 46 45 44 43 41 40 39 37 36 35 34 32 31 30 29 27 27 26 25 24 23 23 22 21 21 20 19 19 18 18 18 17 17
63 63 62 61 60 59 58 56 55 54 53 52 50 49 48 46 45 44 43 41 40 38 37 36 35 33 32 31 30 29 28 27 27 26 25 25 24 24 23 22 22 22 21 21
64 64 65 64 64 63 62 61 60 59 58 57 56 54 53 52 50 49 48 46 45 43 42 41 40 38 37 35 34 33 32 32 31 30 30 29 29 28 28 27 26 26 25 25
Wind_Direction
30 27 25 27 27 27 28 28 28 28 29 30 30 29 28 27 27 27 27 28 27 27 27 28 29 28 29 30 29 28 26 25 25 23 24 23 23 20 9 293 261 255 255 243
35 30 28 29 29 29 29 29 30 30 31 32 31 30 30 30 30 30 31 31 31 31 31 32 32 32 33 33 32 32 31 31 28 26 27 28 27 24 22 19 331 278 258 251
36 31 29 30 29 30 30 31 31 31 31 32 32 32 32 32 32 33 33 34 34 34 33 33 34 35 35 34 34 34 35 34 32 32 31 30 32 35 32 29 23 17 336 258
33 30 29 29 29 29 29 30 31 31 32 33 33 33 33 33 33 33 35 35 36 35 35 35 36 36 36 36 36 36 35 35 34 33 31 30 29 28 28 26 23 20 19 360
28 28 29 27 26 25 27 29 30 31 32 33 32 33 33 33 33 34 35 35 36 36 36 36 36 37 37 37 37 36 36 35 35 34 33 32 30 27 26 25 22 20 18 360
19 20 21 23 24 24 25 29 29 30 30 30 30 30 30 31 32 33 33 34 35 35 36 36 36 37 37 36 35 36 36 35 35 35 34 32 31 30 29 27 25 21 15 6
360 7 12 15 18 19 22 24 25 26 26 26 26 27 28 30 31 31 31 32 33 33 34 35 35 36 35 35 35 35 35 34 34 34 33 33 33 34 33 31 30 29 25 21
324 343 350 359 6 12 15 17 18 19 20 22 23 24 25 27 28 29 30 31 31 32 32 33 34 34 34 34 33 33 33 33 32 32 32 33 34 35 35 36 35 34 33 33
288 309 327 341 350 357 1 5 7 9 12 14 17 20 21 23 25 27 28 29 30 30 31 31 32 32 32 31 32 32 31 31 31 32 32 33 33 35 36 37 38 39 39 40
270 284 300 316 328 339 346 351 356 358 1 4 7 10 13 17 20 23 25 26 27 28 29 29 29 30 30 31 31 30 31 31 31 32 33 33 35 37 38 40 41 41 43 46
263 271 282 293 305 316 326 335 342 346 350 354 356 359 2 7 12 16 19 21 23 24 25 27 28 28 28 29 30 31 31 32 32 33 34 35 37 39 40 41 42 43 46 50
259 265 272 280 289 299 309 316 324 332 337 342 346 348 353 357 2 7 11 14 17 19 21 22 24 26 27 28 29 30 31 32 32 32 33 35 36 38 39 40 42 44 48 53
257 261 266 272 279 286 293 300 308 315 322 328 333 337 340 344 349 355 360 4 9 12 15 17 19 21 23 25 27 27 28 29 30 31 33 34 36 37 39 40 41 43 47 52
256 259 263 268 273 278 283 289 295 301 308 314 320 326 329 332 335 340 346 352 357 2 6 10 13 15 17 20 22 24 25 26 28 29 30 32 34 36 38 40 42 44 47 50
254 256 260 265 269 273 277 281 286 290 295 301 307 313 319 323 326 328 331 336 342 349 354 359 4 7 10 13 15 18 21 22 23 25 26 28 30 32 35 38 41 44 46 48
253 255 257 261 265 269 272 276 279 283 287 291 296 301 307 311 315 319 321 323 326 332 339 345 351 356 0 3 6 10 13 16 18 20 22 24 26 28 31 35 39 43 46 48
253 254 255 258 261 264 268 271 274 276 279 282 286 291 296 300 305 309 313 317 319 321 324 329 335 341 347 352 355 358 2 5 9 13 16 19 22 25 28 32 35 39 43 46
253 253 254 256 259 261 264 267 269 272 274 276 279 283 287 291 295 298 302 306 310 314 317 319 323 327 332 337 342 346 349 353 357 1 5 11 17 21 24 27 30 33 37 40
251 252 253 254 256 258 261 263 265 268 270 272 275 278 281 284 287 290 293 295 299 302 307 311 315 319 322 325 329 333 337 341 343 347 352 357 3 9 14 18 22 24 27 31
251 251 252 253 254 256 258 260 262 264 266 268 271 273 276 278 280 282 285 288 290 293 297 301 305 309 313 316 319 321 324 328 331 333 336 340 345 349 354 358 4 10 14 18
251 251 252 252 253 254 256 257 259 261 263 265 267 269 271 273 275 277 279 281 283 286 288 291 294 297 302 305 308 310 312 314 316 317 319 321 324 328 331 333 336 340 346 352
250 250 251 252 253 253 254 256 257 259 261 262 264 266 267 269 270 272 274 276 278 280 282 284 286 288 291 294 297 299 301 303 304 303 303 305 306 308 310 313 314 315 316 319
248 249 250 251 251 252 253 254 255 257 258 259 261 262 264 265 267 268 269 271 273 275 277 278 280 282 283 285 287 289 291 292 293 293 293 292 292 293 294 295 296 297 296 296
247 247 248 249 250 251 251 252 253 254 255 257 258 260 261 263 264 265 266 268 270 271 272 274 276 277 278 279 280 282 283 284 285 285 284 284 283 283 283 283 284 285 286 285
246 246 246 247 248 249 250 250 251 252 254 255 256 257 259 260 261 262 264 265 266 268 269 270 271 273 274 276 276 277 277 277 278 278 278 277 277 277 277 276 276 276 277 278
245 244 244 245 245 247 247 248 249 250 251 253 254 255 256 258 259 260 261 263 264 265 266 267 268 270 271 271 272 273 272 272 272 272 272 273 273 273 273 273 272 272 272 272
245 244 243 243 243 244 245 246 247 248 249 251 252 253 254 256 257 258 260 261 262 263 264 265 266 267 268 268 269 269 269 269 269 269 269 269 269 270 270 270 269 269 269 269
Height
5902 5900 5897 5894 5891 5888 5885 5881 5877 5873 5868 5864 5859 5854 5850 5845 5840 5835 5830 5826 5821 5816 5811 5806 5801 5797 5792 5788 5785 5781 5778 5775 5772 5769 5766 5764 5762 5760 5759 5759 5759 5759 5759 5760
5902 5899 5897 5895 5892 5889 5885 5882 5878 5874 5870 5866 5861 5857 5852 5848 5843 5838 5833 5828 5824 5819 5814 5810 5805 5800 5796 5791 5788 5784 5780 5777 5774 5771 5768 5766 5764 5762 5760 5759 5758 5758 5758 5758
5902 5900 5898 5896 5893 5890 5887 5883 5880 5876 5873 5868 5864 5859 5855 5850 5846 5841 5836 5832 5827 5823 5818 5813 5809 5804 5800 5795 5791 5787 5783 5780 5776 5773 5770 5767 5765 5763 5762 5760 5759 5758 5758 5757
5902 5901 5898 5898 5893 5890 5887 5884 5881 5877 5874 5870 5866 5862 5857 5853 5849 5844 5840 5835 5831 5826 5822 5817 5812 5808 5804 5799 5795 5791 5787 5783 5780 5776 5773 5770 5767 5765 5763 5761 5760 5759 5758 5757
5901 5900 5898 5897 5893 5891 5888 5885 5882 5879 5875 5872 5868 5864 5860 5856 5852 5847 5843 5839 5835 5830 5826 5821 5817 5812 5808 5803 5799 5795 5791 5787 5783 5779 5776 5773 5770 5767 5765 5763 5761 5760 5758 5758
5901 5900 5898 5898 5894 5891 5890 5886 5883 5880 5877 5873 5870 5867 5863 5859 5854 5850 5846 5842 5838 5834 5830 5825 5821 5816 5812 5807 5803 5799 5795 5791 5787 5783 5779 5776 5772 5769 5766 5764 5762 5760 5759 5758
5900 5899 5898 5896 5893 5892 5890 5889 5884 5881 5878 5875 5872 5869 5865 5861 5857 5853 5849 5845 5841 5837 5833 5829 5825 5820 5816 5812 5807 5803 5799 5795 5791 5786 5783 5779 5775 5772 5768 5766 5763 5761 5760 5758
5899 5898 5899 5895 5893 5892 5890 5887 5884 5881 5879 5876 5873 5870 5866 5863 5859 5855 5852 5848 5844 5840 5836 5832 5828 5824 5820 5816 5811 5807 5803 5799 5795 5790 5786 5782 5778 5775 5771 5768 5766 5763 5761 5759
5898 5899 5896 5894 5892 5890 5888 5886 5884 5882 5879 5877 5874 5871 5868 5864 5861 5857 5854 5850 5847 5843 5839 5835 5831 5827 5823 5819 5815 5811 5807 5803 5798 5794 5790 5786 5782 5778 5775 5772 5769 5766 5763 5761
5895 5894 5893 5892 5890 5889 5887 5885 5883 5881 5879 5876 5874 5871 5868 5865 5862 5859 5856 5852 5849 5845 5842 5838 5834 5830 5826 5822 5818 5814 5810 5806 5802 5798 5794 5790 5786 5782 5778 5775 5772 5769 5766 5764
5892 5892 5891 5889 5888 5887 5885 5884 5882 5880 5878 5876 5873 5871 5869 5866 5863 5860 5857 5854 5851 5847 5844 5840 5837 5833 5829 5826 5822 5818 5813 5809 5805 5801 5797 5794 5790 5786 5783 5779 5776 5773 5770 5767
5889 5889 5888 5887 5886 5885 5883 5882 5880 5878 5876 5874 5872 5870 5868 5866 5863 5861 5858 5855 5852 5849 5846 5842 5839 5836 5832 5828 5825 5821 5817 5813 5809 5805 5801 5797 5794 5790 5787 5783 5780 5777 5774 5771
5885 5884 5884 5883 5883 5882 5880 5879 5878 5876 5874 5873 5871 5869 5867 5865 5863 5861 5858 5856 5853 5850 5847 5844 5841 5837 5834 5831 5827 5824 5820 5816 5812 5808 5805 5801 5797 5794 5791 5787 5784 5781 5778 5776
5879 5880 5880 5879 5879 5878 5877 5876 5875 5873 5872 5870 5869 5867 5865 5864 5862 5860 5858 5855 5853 5850 5848 5845 5842 5839 5836 5832 5829 5826 5822 5819 5815 5812 5808 5805 5801 5798 5794 5791 5788 5785 5782 5780
5874 5874 5874 5874 5874 5873 5873 5872 5871 5870 5869 5868 5866 5865 5863 5861 5860 5858 5856 5854 5852 5850 5847 5845 5842 5840 5837 5834 5831 5828 5824 5821 5818 5814 5811 5808 5804 5801 5798 5795 5792 5789 5786 5784
5867 5868 5868 5868 5868 5868 5868 5867 5867 5866 5865 5864 5863 5862 5860 5859 5857 5856 5854 5852 5850 5848 5846 5844 5842 5839 5837 5834 5831 5828 5826 5823 5819 5816 5813 5810 5807 5804 5801 5798 5795 5792 5790 5788
5859 5860 5860 5861 5861 5861 5861 5861 5861 5861 5860 5859 5859 5858 5857 5855 5854 5853 5851 5850 5848 5846 5844 5842 5840 5838 5836 5833 5831 5828 5826 5823 5820 5817 5815 5812 5809 5806 5803 5801 5798 5796 5793 5791
5850 5851 5852 5853 5854 5854 5854 5854 5854 5854 5854 5854 5853 5853 5852 5851 5850 5849 5848 5846 5845 5843 5842 5840 5838 5836 5834 5832 5830 5828 5825 5823 5820 5818 5815 5812 5810 5807 5805 5803 5801 5798 5796 5794
5839 5840 5842 5843 5844 5845 5846 5846 5847 5847 5847 5847 5847 5847 5846 5846 5845 5844 5843 5842 5841 5840 5838 5837 5835 5833 5832 5830 5828 5826 5824 5822 5820 5817 5815 5813 5810 5808 5806 5804 5802 5800 5798 5796
5827 5829 5831 5832 5834 5835 5837 5837 5838 5839 5839 5840 5840 5840 5840 5839 5839 5839 5838 5837 5836 5835 5834 5833 5831 5830 5828 5827 5825 5823 5822 5820 5818 5816 5814 5812 5810 5808 5806 5805 5803 5801 5799 5798
5814 5816 5818 5820 5822 5824 5826 5827 5828 5829 5830 5831 5831 5831 5832 5832 5832 5832 5831 5831 5830 5830 5829 5828 5826 5825 5824 5823 5821 5820 5818 5817 5815 5813 5812 5810 5809 5807 5805 5804 5802 5801 5799 5798
5799 5802 5804 5807 5809 5811 5813 5815 5817 5818 5819 5820 5821 5822 5822 5823 5823 5823 5823 5824 5823 5823 5822 5821 5821 5820 5819 5818 5817 5815 5814 5813 5811 5810 5808 5807 5806 5804 5803 5802 5801 5799 5798 5797
5783 5786 5789 5792 5794 5797 5799 5801 5803 5805 5807 5808 5809 5811 5812 5813 5813 5814 5814 5815 5815 5814 5814 5814 5813 5813 5812 5811 5810 5810 5808 5807 5806 5805 5804 5803 5802 5801 5800 5799 5798 5797 5796 5795
5766 5769 5772 5775 5778 5781 5784 5787 5789 5791 5793 5795 5796 5798 5799 5801 5802 5802 5803 5804 5805 5805 5805 5805 5805 5804 5804 5804 5803 5802 5802 5801 5800 5799 5798 5797 5796 5796 5795 5794 5793 5792 5792 5791
5746 5750 5753 5757 5760 5763 5766 5769 5772 5775 5777 5779 5782 5783 5785 5787 5789 5790 5791 5792 5793 5793 5794 5794 5794 5794 5794 5794 5794 5794 5793 5793 5792 5792 5791 5790 5790 5789 5788 5788 5787 5787 5786 5786
5724 5728 5732 5736 5740 5744 5747 5751 5754 5757 5760 5762 5765 5767 5769 5771 5773 5775 5777 5778 5779 5780 5781 5782 5782 5783 5783 5783 5783 5783 5783 5783 5783 5782 5782 5782 5781 5781 5781 5780 5780 5779 5779 5779
5701 5705 5710 5714 5719 5723 5726 5730 5734 5737 5741 5744 5747 5749 5752 5754 5756 5759 5761 5762 5764 5765 5767 5768 5769 5770 5770 5771 5771 5771 5772 5772 5772 5772 5772 5772 5772 5771 5771 5771 5771 5771 5771 5770